Location: Brede
(50.9167°N, 0.6000°E)
Time: 09:06:44
(UTC+00:00)

Altair - Pass Details

Date: 05 August 2021
Orbit: 1501 x 1682 km, 47.2° (Epoch: 18 September)

Event Time Altitude Azimuth Distance (km) Brightness Sun altitude
Exits shadow 02:21:19 13° 247° (WSW) 3,479 8.9 -15.7°
Maximum altitude 02:29:47 67° 168° (SSE) 1,625 7.4 -15.0°
Drops below altitude 10° 02:38:51 10° 89° (E) 3,657 10.0 -14.1°
Sets 02:41:53 0° 87° (E) 4,636 10.7 -13.8°
